Simultaneous Nadir Overpasses (SNOs) Predictions

Prediction of SNOs between LANDSAT-8 and NOAA-19 Satellite Orbit:

Table of predicted SNOs for the next 14.0 days since TLE Epoch: 2/12/2016
Index Date (LANDSAT-8) Time (LANDSAT-8) Lat,Lon (LANDSAT-8) SZA (LANDSAT-8 ) Date (NOAA-19) Time (NOAA-19) Lat,Lon (NOAA-19) SZA (NOAA-19 ) Distance(km) Time Diff (sec)
1 02/14/2016 10:58:03 74.32, 19.28 87.36 02/14/2016 10:56:50 74.39, 18.77 87.43 16.87 73
2 02/14/2016 11:47:33 -74.20,-173.37 92.78 02/14/2016 11:47:42 -74.19,-173.44 92.78 1.93 9
3 02/16/2016 16:31:48 -74.25, 115.67 93.48 02/16/2016 16:30:51 -74.24, 115.70 93.49 1.15 57
4 02/16/2016 17:21:15 74.17, -76.88 86.43 02/16/2016 17:21:56 74.17, -76.89 86.43 0.62 41
5 02/18/2016 22:05:29 74.26,-147.74 85.75 02/18/2016 22:05:06 74.26,-147.86 85.75 3.78 23
6 02/18/2016 22:54:59 -74.14, 19.62 94.39 02/18/2016 22:55:59 -74.14, 19.72 94.38 3.11 60
7 02/21/2016 02:49:33 74.85, 142.65 85.57 02/21/2016 02:48:27 74.88, 139.67 85.59 86.62 66
8 02/21/2016 03:39:13 -74.22, -51.25 95.09 02/21/2016 03:39:09 -74.25, -51.29 95.06 3.04 4
9 02/23/2016 08:23:27 -74.30,-122.14 95.81 02/23/2016 08:22:18 -74.31,-122.20 95.80 2.26 69
10 02/23/2016 09:12:54 74.21, 45.30 84.09 02/23/2016 09:13:23 74.21, 45.29 84.10 0.22 29
11 02/25/2016 13:57:08 74.28, -25.61 83.35 02/25/2016 13:56:32 74.27, -25.62 83.35 0.39 36
